Location: Dallas(GA)
(33.9240°N, 84.8410°W)
Time: 01:33:48
(UTC-04:00)

Envisat - Visible Passes

Search period start: 28 September 2020 00:00
Search period end: 08 October 2020 00:00
Orbit: 764 x 766 km, 98.1° (Epoch: 27 September)

Date Brightness Start Highest point End Pass type
(mag) Time Alt. Az. Time Alt. Az. Time Alt. Az.
29 Sep 4.8 07:05:48 10° NNE 07:10:30 37° E 07:15:10 10° SSE visible
29 Sep 5.8 19:56:12 10° SSW 20:00:09 23° W 20:04:07 10° NW visible
30 Sep 6.2 06:30:30 10° ENE 06:33:29 16° E 06:36:27 10° SE visible
01 Oct 6.5 20:23:55 10° WSW 20:25:48 12° W 20:27:41 10° WNW visible
02 Oct 5.3 06:54:43 10° NE 06:59:05 29° E 07:03:27 10° SSE visible
02 Oct 5.4 19:44:21 10° SSW 19:48:43 29° W 19:53:08 10° NW visible
03 Oct 6.5 06:20:16 10° ENE 06:22:01 12° E 06:23:45 10° ESE visible
04 Oct 6.2 20:11:18 10° SW 20:14:20 16° W 20:17:24 10° NW visible
05 Oct 5.8 06:43:44 10° NE 06:47:40 22° E 06:51:34 10° SE visible
07 Oct 4.6 07:08:26 10° NNE 07:13:14 41° E 07:17:59 10° SSE visible
07 Oct 5.9 19:59:08 10° SW 20:02:53 21° W 20:06:39 10° NW visible
